When you browse on this site, cookies collect data to enhance your experience and personalize the content and advertising you see.
Visit our Privacy Policy to learn more. By continuing to use the site, you agree to this use of cookies and data.
  • In Österreich
  • Länderverzeichnis
  • Für 7 Tage
  • Wassertemperatur
  • Wetterkarte
  • News
  • Widgets
  • user-avatar
    Anmelden

    Stündliche Wetter Madrid

    Heute, 18 Januar, Samstag

    Zeit Temperatur Niederschläge Wind Luftdruck Luftfeuchtigkeit
    00:00 +13°C° 0 mm 2 m/S 561 mmHg 76%
    01:00 +12°C° 0 mm 2 m/S 561 mmHg 76%
    02:00 +12°C° 0 mm 2 m/S 560 mmHg 78%
    03:00 +12°C° 0 mm 2 m/S 560 mmHg 79%
    04:00 +12°C° 0 mm 2 m/S 560 mmHg 80%
    05:00 +12°C° 0 mm 2 m/S 560 mmHg 80%
    06:00 +12°C° 0 mm 2 m/S 561 mmHg 80%
    07:00 +13°C° 0 mm 2 m/S 561 mmHg 80%
    08:00 +15°C° 0 mm 2 m/S 562 mmHg 74%
    09:00 +16°C° 0 mm 2 m/S 564 mmHg 67%
    10:00 +18°C° 0 mm 2 m/S 565 mmHg 60%
    11:00 +19°C° 0 mm 2 m/S 564 mmHg 57%
    12:00 +20°C° 0 mm 2 m/S 564 mmHg 54%
    13:00 +21°C° 0 mm 2 m/S 564 mmHg 50%
    14:00 +20°C° 0.1 mm 2 m/S 563 mmHg 54%
    15:00 +21°C° 0.1 mm 1 m/S 562 mmHg 57%
    16:00 +20°C° 0.1 mm 1 m/S 562 mmHg 60%
    17:00 +19°C° 0 mm 1 m/S 561 mmHg 66%
    18:00 +16°C° 0 mm 1 m/S 560 mmHg 73%
    19:00 +14°C° 0 mm 2 m/S 560 mmHg 79%
    20:00 +14°C° 0 mm 2 m/S 560 mmHg 79%
    21:00 +13°C° 0 mm 2 m/S 561 mmHg 79%
    22:00 +13°C° 0 mm 2 m/S 561 mmHg 79%
    23:00 +13°C° 0 mm 2 m/S 561 mmHg 79%

    Morgen, 19 Januar, Sonntag

    Zeit Temperatur Niederschläge Wind Luftdruck Luftfeuchtigkeit
    00:00 +13°C° 0 mm 2 m/S 561 mmHg 79%
    01:00 +12°C° 0 mm 2 m/S 560 mmHg 79%
    02:00 +12°C° 0 mm 2 m/S 560 mmHg 79%
    03:00 +12°C° 0 mm 2 m/S 560 mmHg 79%
    04:00 +12°C° 0 mm 2 m/S 560 mmHg 79%
    05:00 +12°C° 0 mm 2 m/S 560 mmHg 80%
    06:00 +12°C° 0 mm 2 m/S 560 mmHg 80%
    07:00 +12°C° 0 mm 2 m/S 560 mmHg 80%
    08:00 +15°C° 0 mm 2 m/S 562 mmHg 73%
    09:00 +17°C° 0 mm 2 m/S 563 mmHg 66%
    10:00 +19°C° 0 mm 2 m/S 565 mmHg 59%
    11:00 +20°C° 0.1 mm 2 m/S 564 mmHg 57%
    12:00 +21°C° 0.1 mm 1 m/S 564 mmHg 54%
    13:00 +22°C° 0.1 mm 1 m/S 563 mmHg 52%
    14:00 +22°C° 0.1 mm 1 m/S 563 mmHg 56%
    15:00 +21°C° 0.1 mm 1 m/S 562 mmHg 59%
    16:00 +20°C° 0.1 mm 1 m/S 561 mmHg 63%
    17:00 +19°C° 0.1 mm 1 m/S 561 mmHg 69%
    18:00 +18°C° 0.1 mm 1 m/S 560 mmHg 75%
    19:00 +15°C° 0.1 mm 1 m/S 560 mmHg 80%
    20:00 +15°C° 0.1 mm 1 m/S 561 mmHg 80%
    21:00 +14°C° 0.1 mm 1 m/S 561 mmHg 80%
    22:00 +14°C° 0.1 mm 1 m/S 562 mmHg 80%
    23:00 +14°C° 0.1 mm 1 m/S 561 mmHg 81%

    übermorgen, 20 Januar, Montag

    Zeit Temperatur Niederschläge Wind Luftdruck Luftfeuchtigkeit
    00:00 +13°C° 0.1 mm 2 m/S 561 mmHg 82%
    01:00 +13°C° 0.1 mm 2 m/S 560 mmHg 83%
    02:00 +12°C° 0.1 mm 2 m/S 560 mmHg 84%
    03:00 +12°C° 0.1 mm 2 m/S 560 mmHg 84%
    04:00 +12°C° 0.1 mm 1 m/S 559 mmHg 85%
    05:00 +12°C° 0.1 mm 1 m/S 560 mmHg 84%
    06:00 +12°C° 0.1 mm 1 m/S 560 mmHg 83%
    07:00 +13°C° 0.1 mm 1 m/S 561 mmHg 82%
    08:00 +14°C° 0.1 mm 1 m/S 562 mmHg 76%
    09:00 +16°C° 0.1 mm 1 m/S 563 mmHg 70%
    10:00 +19°C° 0.1 mm 1 m/S 564 mmHg 64%
    11:00 +20°C° 0.4 mm 1 m/S 564 mmHg 65%
    12:00 +20°C° 0.4 mm 1 m/S 563 mmHg 66%
    13:00 +19°C° 0.4 mm 2 m/S 563 mmHg 67%
    14:00 +19°C° 0.7 mm 1 m/S 562 mmHg 71%
    15:00 +19°C° 0.7 mm 1 m/S 561 mmHg 75%
    16:00 +18°C° 0.7 mm 1 m/S 561 mmHg 79%
    17:00 +16°C° 1 mm 1 m/S 561 mmHg 83%
    18:00 +15°C° 1 mm 1 m/S 561 mmHg 87%
    19:00 +13°C° 1 mm 0 m/S 561 mmHg 91%
    20:00 +13°C° 0.9 mm 0 m/S 561 mmHg 90%
    21:00 +13°C° 0.9 mm 0 m/S 561 mmHg 89%
    22:00 +14°C° 0.9 mm 1 m/S 562 mmHg 88%
    23:00 +14°C° 1.4 mm 1 m/S 561 mmHg 89%

    21 Januar, Dienstag

    Zeit Temperatur Niederschläge Wind Luftdruck Luftfeuchtigkeit
    00:00 +14°C° 1.4 mm 1 m/S 561 mmHg 91%
    01:00 +13°C° 1.4 mm 1 m/S 561 mmHg 92%
    02:00 +13°C° 1.8 mm 1 m/S 560 mmHg 92%
    03:00 +13°C° 1.8 mm 1 m/S 560 mmHg 92%
    04:00 +13°C° 1.8 mm 1 m/S 560 mmHg 92%
    05:00 +13°C° 0.3 mm 1 m/S 560 mmHg 91%
    06:00 +12°C° 0.3 mm 0 m/S 561 mmHg 90%
    07:00 +12°C° 0.3 mm 0 m/S 561 mmHg 89%
    08:00 +14°C° 0.2 mm 1 m/S 562 mmHg 85%
    09:00 +16°C° 0.2 mm 1 m/S 563 mmHg 82%
    10:00 +18°C° 0.2 mm 1 m/S 564 mmHg 78%
    11:00 +17°C° 1.1 mm 2 m/S 563 mmHg 81%
    12:00 +16°C° 1.1 mm 2 m/S 562 mmHg 84%
    13:00 +16°C° 1.1 mm 2 m/S 561 mmHg 87%
    14:00 +15°C° 1.1 mm 2 m/S 561 mmHg 88%
    15:00 +15°C° 1.1 mm 1 m/S 560 mmHg 90%
    16:00 +14°C° 1.1 mm 1 m/S 560 mmHg 91%
    17:00 +14°C° 0.7 mm 1 m/S 560 mmHg 91%
    18:00 +13°C° 0.7 mm 0 m/S 560 mmHg 91%
    19:00 +12°C° 0.7 mm 0 m/S 560 mmHg 91%
    20:00 +12°C° 1.1 mm 0 m/S 560 mmHg 92%
    21:00 +12°C° 1.1 mm 0 m/S 561 mmHg 92%
    22:00 +12°C° 1.1 mm 0 m/S 561 mmHg 92%
    23:00 +12°C° 0.2 mm 0 m/S 561 mmHg 92%

    22 Januar, Mittwoch

    Zeit Temperatur Niederschläge Wind Luftdruck Luftfeuchtigkeit
    00:00 +12°C° 0.2 mm 0 m/S 561 mmHg 92%
    01:00 +12°C° 0.2 mm 0 m/S 560 mmHg 92%
    02:00 +12°C° 0.2 mm 0 m/S 560 mmHg 93%
    03:00 +12°C° 0.2 mm 0 m/S 560 mmHg 93%
    04:00 +11°C° 0.2 mm 0 m/S 560 mmHg 93%
    05:00 +12°C° 0.1 mm 0 m/S 560 mmHg 93%
    06:00 +12°C° 0.1 mm 0 m/S 560 mmHg 92%
    07:00 +12°C° 0.1 mm 0 m/S 561 mmHg 92%
    08:00 +12°C° 0.2 mm 0 m/S 561 mmHg 90%
    09:00 +14°C° 0.2 mm 1 m/S 562 mmHg 88%
    10:00 +15°C° 0.2 mm 1 m/S 563 mmHg 86%
    11:00 +16°C° 0.6 mm 1 m/S 563 mmHg 84%
    12:00 +16°C° 0.6 mm 1 m/S 563 mmHg 81%
    13:00 +18°C° 0.6 mm 1 m/S 563 mmHg 78%
    14:00 +18°C° 0.9 mm 1 m/S 562 mmHg 80%
    15:00 +18°C° 0.9 mm 1 m/S 561 mmHg 82%
    16:00 +16°C° 0.9 mm 1 m/S 560 mmHg 84%
    17:00 +15°C° 0.9 mm 1 m/S 560 mmHg 87%
    18:00 +14°C° 0.9 mm 1 m/S 560 mmHg 91%
    19:00 +13°C° 0.9 mm 1 m/S 560 mmHg 94%
    20:00 +13°C° 0.5 mm 1 m/S 560 mmHg 93%
    21:00 +13°C° 0.5 mm 1 m/S 561 mmHg 92%
    22:00 +12°C° 0.5 mm 0 m/S 561 mmHg 90%
    23:00 +12°C° 0.1 mm 0 m/S 561 mmHg 91%

    23 Januar, Donnerstag

    Zeit Temperatur Niederschläge Wind Luftdruck Luftfeuchtigkeit
    00:00 +11°C° 0.1 mm 0 m/S 561 mmHg 92%
    01:00 +11°C° 0.1 mm 0 m/S 560 mmHg 93%
    02:00 +11°C° 0 mm 0 m/S 560 mmHg 93%
    03:00 +11°C° 0 mm 0 m/S 560 mmHg 93%
    04:00 +11°C° 0 mm 0 m/S 559 mmHg 92%
    05:00 +11°C° 0 mm 0 m/S 560 mmHg 92%
    06:00 +11°C° 0 mm 0 m/S 560 mmHg 91%
    07:00 +12°C° 0 mm 0 m/S 561 mmHg 90%
    08:00 +14°C° 0.1 mm 1 m/S 562 mmHg 83%
    09:00 +16°C° 0.1 mm 1 m/S 563 mmHg 77%
    10:00 +18°C° 0.1 mm 2 m/S 564 mmHg 71%
    11:00 +18°C° 0.5 mm 2 m/S 563 mmHg 71%
    12:00 +18°C° 0.5 mm 2 m/S 563 mmHg 72%
    13:00 +18°C° 0.5 mm 2 m/S 562 mmHg 73%
    14:00 +18°C° 1 mm 2 m/S 562 mmHg 76%
    15:00 +17°C° 1 mm 2 m/S 561 mmHg 79%
    16:00 +18°C° 1 mm 1 m/S 560 mmHg 82%
    17:00 +16°C° 0.7 mm 1 m/S 560 mmHg 86%
    18:00 +15°C° 0.7 mm 1 m/S 560 mmHg 90%
    19:00 +12°C° 0.7 mm 0 m/S 560 mmHg 95%
    20:00 +12°C° 0.2 mm 0 m/S 560 mmHg 94%
    21:00 +13°C° 0.2 mm 1 m/S 560 mmHg 93%
    22:00 +13°C° 0.2 mm 1 m/S 561 mmHg 92%
    23:00 +12°C° 0.1 mm 1 m/S 561 mmHg 92%
    Mehr zeigen